This demonstration page uses our WeatherBlox Daily Observations layout. Learn more.

Left ArrowRight Arrow

39.12711, -84.51439

Hourly Observations for July 3, 2018

Temp ( °F °C ) Dew Point ( °F °C ) Humidity (%) Winds ( mph kmh ) Pressure ( in mb ) Visibility ( mi km ) Precip ( " mm )
12:53 am 00:53 Clear 72 22.2 72 22.2 100 100 Calm 30.11 1020 7 11 0.00 0.00
1:53 am 01:53 Clear with Mist and Fog 72 22.2 72 22.2 100 100 Calm 30.11 1020 5 8 0.00 0.00
2:53 am 02:53 Clear 72 22.2 72 22.2 100 100 N 3 6 30.10 1019 7 11 0.00 0.00
3:53 am 03:53 Clear 72 22.2 72 22.2 100 100 Calm 30.10 1019 8 13 0.00 0.00
4:53 am 04:53 Clear 71 21.7 71 21.7 100 100 Calm 30.09 1019 8 13 0.00 0.00
5:39 am 05:39 Mostly Clear with Mist and Fog 70 21.1 70 21.1 100 100 Calm 30.09 1019 2 2 0.00 0.00
5:44 am 05:44 Mostly Cloudy with Mist and Fog 70 21.1 70 21.1 100 100 Calm 30.09 1019 1 1 0.00 0.00
5:53 am 05:53 Mostly Cloudy with Mist and Fog 70 21.1 70 21.1 100 100 Calm 30.10 1019 1 1 0.00 0.00
5:59 am 05:59 Mostly Clear with Mist and Fog 70 21.1 70 21.1 100 100 SE 3 6 30.09 1019 1 2 0.00 0.00
6:02 am 06:02 Mostly Clear with Mist and Fog 70 21.1 70 21.1 100 100 SE 3 6 30.09 1019 3 5 0.00 0.00
6:53 am 06:53 Mostly Sunny 71 21.7 71 21.7 100 100 Calm 30.12 1020 10 16 0.00 0.00
7:53 am 07:53 Sunny 75 23.9 73 22.8 94 94 Calm 30.13 1020 10 16 0.00 0.00
8:53 am 08:53 Sunny 79 26.1 73 22.8 82 82 Calm 30.15 1021 10 16 0.00 0.00
9:53 am 09:53 Sunny 78 25.6 72 22.2 82 82 S 5 7 30.17 1022 10 16 0.00 0.00
10:53 am 10:53 Sunny 82 27.8 74 23.3 77 77 Calm 30.17 1022 10 16 0.00 0.00
11:53 am 11:53 Sunny 86 30 76 24.4 72 72 ESE 5 7 30.16 1022 10 16 0.00 0.00
12:53 pm 12:53 Partly Cloudy 87 30.6 77 25 72 72 SSE 7 11 30.15 1021 10 16 0.00 0.00
1:53 pm 13:53 Mostly Cloudy 88 31.1 75 23.9 66 66 S 7 11 30.14 1021 10 16 0.00 0.00
2:53 pm 14:53 Mostly Cloudy with Thunderstorms 87 30.6 75 23.9 67 67 SSE 5 7 30.13 1020 10 16 0.00 0.00
3:05 pm 15:05 Mostly Cloudy with Thunderstorms 86 30 76 24.4 72 72 S 14 22 30.12 1020 10 16 0.00 0.03
3:12 pm 15:12 Mostly Cloudy with Strong Thunderstorms 79 26.1 74 23.3 85 85 S 31 50 30.12 1020 3 5 0.02 0.51
3:30 pm 15:30 Mostly Cloudy with Thunderstorms 76 24.4 75 23.9 97 97 E 12 19 30.12 1020 8 13 0.26 6.60
3:45 pm 15:45 Cloudy with Light Rain 77 25 77 25 100 100 S 6 9 30.12 1020 10 16 0.26 6.60
3:53 pm 15:53 Mostly Cloudy with Light Rain 76 24.4 76 24.4 100 100 S 5 7 30.15 1021 10 16 0.26 6.60
4:53 pm 16:53 Mostly Sunny 80 26.7 77 25 90 90 SW 5 7 30.15 1021 10 16 0.00 0.03
5:53 pm 17:53 Mostly Sunny 82 27.8 77 25 85 85 S 7 11 30.16 1021 10 16 0.00 0.00
6:53 pm 18:53 Partly Cloudy with Light Rain 82 27.8 76 24.4 82 82 Calm 30.16 1021 10 16 0.00 0.03
7:53 pm 19:53 Sunny 80 26.7 75 23.9 85 85 N 5 7 30.15 1021 10 16 0.00 0.03
8:53 pm 20:53 Sunny 78 25.6 76 24.4 93 93 ENE 3 6 30.14 1021 10 16 0.00 0.00
9:53 pm 21:53 Clear 77 25 74 23.3 90 90 Calm 30.16 1022 10 16 0.00 0.00
10:53 pm 22:53 Clear 75 23.9 74 23.3 96 96 NNE 3 6 30.19 1022 10 16 0.00 0.00
11:53 pm 23:53 Clear 74 23.3 74 23.3 100 100 Calm 30.19 1022 10 16 0.00 0.00

Powered by AerisWeather